Minneapolis Flying Cloud, MN

4:21 PM CDT on October 21, 2019 (GMT -0500)
Flying Cloud

Weather History for KFCM - August, 2019

Change the Weather History Date:

Monday, August 19, 2019

  Actual Average Record
Temperature  
Mean Temperature 66 °F -  
Max Temperature 80 °F 78 °F 91 °F (2008)
Min Temperature 54 °F 59 °F 43 °F (2004)
Cooling Degree Days 2    
Growing Degree Days 16 (Base 50)    
Moisture  
Dew Point 57 °F    
Average Humidity 70    
Maximum Humidity 93    
Minimum Humidity 48    
Precipitation  
Precipitation 0.00 in - - ()
Sea Level Pressure  
Sea Level Pressure 29.98 in    
Wind  
Wind Speed 4 mph (SSW)    
Max Wind Speed 10 mph    
Max Gust Speed 16 mph    
Visibility 10 miles    
Events      
Averages and records for this station are not official NWS values.
T = Trace of Precipitation, MM = Missing Value Source: NWS Daily Summary

Daily Weather History Graph

Daily Weather History Graph

Search for Another Location

Airport or City:

Astronomy

Aug. 19, 2019 Rise Set
Actual Time 6:20 AM CDT 8:13 PM CDT
Civil Twilight 5:49 AM CDT 8:44 PM CDT
Nautical Twilight 5:10 AM CDT 9:23 PM CDT
Astronomical Twilight 4:28 AM CDT 10:05 PM CDT
Moon 10:25 PM CDT (8/19) 10:10 AM CDT (8/19)
Length of Visible Light 14h 55m
Length of Day
13h 53m
Waning Gibbous, 85% of the Moon is Illuminated
Aug 19
Waning Gibbous
Aug 23
Last Quarter
Aug 30
New
Sep 5
First Quarter
Sep 13
Full

Hourly Weather History & Observations

Time (CDT) Temp. Dew Point Humidity Pressure Visibility Wind Dir Wind Speed Gust Speed Precip Events Conditions
12:53 AM 57.9 °F 52.0 °F 81% 29.95 in 10.0 mi SW 3.5 mph - N/A   Clear
1:53 AM 57.9 °F 52.0 °F 81% 29.95 in 10.0 mi Calm Calm - N/A   Clear
2:53 AM 57.9 °F 52.0 °F 81% 29.96 in 10.0 mi Calm Calm - N/A   Clear
3:53 AM 55.9 °F 53.1 °F 90% 29.97 in 10.0 mi Calm Calm - N/A   Clear
4:53 AM 55.0 °F 53.1 °F 93% 29.98 in 10.0 mi SSW 3.5 mph - N/A   Clear
5:53 AM 54.0 °F 52.0 °F 93% 29.99 in 10.0 mi SSW 4.6 mph - N/A   Clear
6:53 AM 55.9 °F 53.1 °F 90% 30.00 in 10.0 mi Calm Calm - N/A   Clear
7:53 AM 57.9 °F 54.0 °F 87% 30.00 in 10.0 mi Calm Calm - N/A   Clear
8:53 AM 62.1 °F 54.0 °F 75% 30.00 in 10.0 mi SW 3.5 mph - N/A   Clear
9:53 AM 66.9 °F 55.0 °F 66% 30.01 in 10.0 mi SW 3.5 mph - N/A   Clear
10:53 AM 72.0 °F 53.1 °F 51% 30.01 in 10.0 mi SW 6.9 mph - N/A   Clear
11:53 AM 73.9 °F 57.0 °F 55% 30.00 in 10.0 mi SSW 6.9 mph - N/A   Clear
12:53 PM 75.0 °F 57.0 °F 53% 30.01 in 10.0 mi SSW 9.2 mph - N/A   Clear
1:53 PM 77.0 °F 57.9 °F 52% 29.99 in 10.0 mi SSW 5.8 mph - N/A   Clear
2:53 PM 78.1 °F 57.9 °F 50% 29.98 in 10.0 mi Variable 4.6 mph 16.1 mph N/A   Clear
3:53 PM 79.0 °F 57.9 °F 48% 29.97 in 10.0 mi SSW 8.1 mph - N/A   Clear
5:53 PM 79.0 °F 60.1 °F 52% 29.96 in 10.0 mi SSW 10.4 mph - N/A   Clear
6:53 PM 78.1 °F 59.0 °F 52% 29.95 in 10.0 mi SSW 9.2 mph - N/A   Clear
7:53 PM 75.0 °F 61.0 °F 62% 29.95 in 10.0 mi South 5.8 mph - N/A   Clear
8:53 PM 73.0 °F 62.1 °F 68% 29.96 in 10.0 mi South 5.8 mph - N/A   Clear
9:53 PM 71.1 °F 62.1 °F 73% 29.97 in 10.0 mi SSE 5.8 mph - N/A   Clear
10:53 PM 69.1 °F 62.1 °F 78% 29.98 in 10.0 mi SSE 5.8 mph - N/A   Clear
11:53 PM 68.0 °F 62.1 °F 81% 29.98 in 10.0 mi SE 5.8 mph - N/A   Clear